VK2OU Weather Reports


Display with metric or nautical units.
time (UTC)temp
F
wind
direction
speed
MPH
gust
MPH
rain 1hr
in
rain 24hr
in
rain mn
in
humidity
%
barometer
mb
20260504050549 55 282 4.0 11.0 0.00 0.00 0.00 96
20260504050521 55 0.0 0.0 0.01 0.26 0.26 99
20260504045530 55 0.0 0.0 0.01 0.26 0.26 99
20260504045521 55 283 5.0 13.0 0.00 0.00 0.00 95
20260504044557 55 0.0 0.0 0.01 0.26 0.26 99
20260504044549 55 285 6.0 11.0 0.00 0.00 0.00 96
20260504043547 56 0.0 0.0 0.01 0.26 0.26 99
20260504043541 55 287 7.0 15.0 0.00 0.00 0.00 96
20260504042534 56 0.0 0.0 0.01 0.26 0.26 99
20260504042529 56 283 5.0 11.0 0.00 0.00 0.00 96
20260504041523 56 0.0 2.0 0.00 0.25 0.25 99
20260504041521 56 286 7.0 13.0 0.00 0.00 0.00 95
20260504040532 57 270 0.0 4.0 0.00 0.25 0.25 99
20260504035521 58 0.0 0.0 0.00 0.25 0.25 99
20260504034553 58 0.0 0.0 0.00 0.25 0.25 99
20260504033539 58 0.0 0.0 0.00 0.25 0.25 99
20260504033521 57 282 6.0 13.0 0.00 0.00 0.00 94
20260504032530 58 0.0 1.0 0.00 0.25 0.25 99
20260504031555 58 0.0 0.0 0.00 0.25 0.25 99
20260504031522 58 274 4.0 11.0 0.00 0.00 0.00 96
20260504030529 58 277 5.0 10.0 0.00 0.00 0.00 96
20260504030524 58 0.0 0.0 0.00 0.25 0.25 99
20260504025532 58 0.0 0.0 0.00 0.25 0.25 99
20260504025521 58 283 6.0 13.0 0.00 0.00 0.00 96
20260504024529 58 281 4.0 9.0 0.00 0.00 0.00 96
20260504024521 58 0.0 0.0 0.00 0.25 0.25 99
20260504023549 58 0.0 0.0 0.00 0.25 0.25 99
20260504023541 58 294 5.0 9.0 0.00 0.00 0.00 96
20260504022536 58 338 1.0 8.0 0.00 0.25 0.25 99
20260504022529 58 289 5.0 11.0 0.00 0.00 0.00 95
20260504021525 58 0.0 0.0 0.00 0.25 0.25 99
20260504021522 58 304 5.0 11.0 0.00 0.00 0.00 95
20260504020534 58 270 0.0 2.0 0.00 0.25 0.25 99
20260504020529 58 260 3.0 8.0 0.00 0.00 0.00 94
20260504015524 58 293 1.0 7.0 0.00 0.25 0.25 99
20260504014531 58 319 0.0 2.0 0.00 0.25 0.25 99
20260504014528 58 290 5.0 16.0 0.00 0.00 0.00 93
20260504013521 58 288 5.0 13.0 0.00 0.00 0.00 94
20260504012529 57 314 2.0 10.0 0.01 0.25 0.25 99
20260504011536 57 299 2.0 11.0 0.01 0.25 0.25 99
20260504011523 58 287 7.0 16.0 0.00 0.00 0.00 95
20260504010529 58 289 5.0 10.0 0.00 0.00 0.00 95
20260504010525 57 270 0.0 3.0 0.01 0.25 0.25 99
20260504005533 57 278 1.0 5.0 0.01 0.25 0.25 99
20260504005521 58 285 5.0 15.0 0.00 0.00 0.00 95
20260504004529 57 297 7.0 15.0 0.00 0.00 0.00 96
20260504004525 57 293 3.0 9.0 0.01 0.25 0.25 99
20260504003530 57 307 1.0 4.0 0.00 0.24 0.24 99
20260504003523 57 298 6.0 13.0 0.00 0.00 0.00 97
20260504002549 57 304 5.0 10.0 0.00 0.00 0.00 97
20260504002540 57 321 1.0 6.0 0.00 0.24 0.24 99
20260504001528 57 315 1.0 5.0 0.01 0.24 0.24 99
20260504001522 57 306 6.0 11.0 0.00 0.00 0.00 98
20260504000535 57 279 1.0 11.0 0.02 0.24 0.24 99
20260504000531 57 294 6.0 15.0 0.00 0.00 0.00 98
20260503235525 57 293 1.0 11.0 0.03 0.24 0.24 99
20260503235523 57 292 5.0 14.0 0.00 0.00 0.00 98
20260503234552 57 338 1.0 5.0 0.04 0.24 0.24 99
20260503234549 57 302 4.0 9.0 0.00 0.00 0.00 98
20260503233522 57 293 0.0 3.0 0.05 0.24 0.24 99
20260503233520 57 298 4.0 14.0 0.00 0.00 0.00 98
20260503232550 57 0.0 0.0 0.05 0.24 0.24 99
20260503231521 57 313 5.0 10.0 0.00 0.00 0.00 98
20260503230550 57 316 5.0 14.0 0.00 0.00 0.00 98
20260503225534 57 0.0 3.0 0.04 0.21 0.21 99
20260503225523 57 298 4.0 8.0 0.00 0.00 0.00 98
20260503224529 57 290 5.0 10.0 0.00 0.00 0.00 98
20260503224525 57 0.0 0.0 0.03 0.20 0.20 99
20260503223532 57 0.0 1.0 0.02 0.19 0.19 99
20260503223523 57 291 5.0 14.0 0.00 0.00 0.00 98
20260503222529 57 289 4.0 8.0 0.00 0.00 0.00 98
20260503222522 57 0.0 0.0 0.02 0.19 0.19 99
20260503221531 57 299 1.0 10.0 0.00 0.17 0.17 99
20260503221525 57 298 6.0 13.0 0.00 0.00 0.00 98
20260503220537 57 0.0 0.0 0.00 0.17 0.17 99
20260503220529 57 310 4.0 14.0 0.00 0.00 0.00 98
20260503215526 57 0.0 0.0 0.00 0.17 0.17 99
20260503215521 57 299 4.0 11.0 0.00 0.00 0.00 98
20260503214534 57 293 0.0 4.0 0.00 0.17 0.17 99
20260503214529 57 285 6.0 14.0 0.00 0.00 0.00 98
20260503213525 57 303 5.0 9.0 0.00 0.00 0.00 98
20260503212533 57 315 0.0 1.0 0.00 0.17 0.17 99
20260503211521 57 0.0 0.0 0.00 0.17 0.17 99
20260503210530 56 295 6.0 13.0 0.00 0.00 0.00 99
20260503205539 57 0.0 0.0 0.00 0.17 0.17 99
20260503205521 56 282 3.0 8.0 0.00 0.00 0.00 99
20260503204534 56 291 4.0 9.0 0.00 0.00 0.00 99
20260503204526 57 0.0 0.0 0.00 0.17 0.17 99
20260503203554 56 0.0 0.0 0.00 0.17 0.17 99
20260503203548 56 286 3.0 8.0 0.00 0.00 0.00 99
20260503202529 56 303 3.0 8.0 0.00 0.00 0.00 99
20260503202523 56 0.0 0.0 0.01 0.17 0.17 99
20260503201531 56 0.0 0.0 0.01 0.17 0.17 99
20260503201521 56 277 3.0 6.0 0.00 0.00 0.00 99
20260503200529 56 287 4.0 11.0 0.00 0.00 0.00 99
20260503200522 56 0.0 0.0 0.01 0.17 0.17 99
20260503195549 56 0.0 0.0 0.01 0.17 0.17 99
20260503195545 56 289 3.0 7.0 0.00 0.00 0.00 99
20260503194536 56 0.0 0.0 0.01 0.17 0.17 99
20260503194534 56 283 4.0 10.0 0.00 0.00 0.00 99
20260503193546 56 0.0 0.0 0.01 0.17 0.17 99
20260503193542 56 256 2.0 5.0 0.00 0.00 0.00 99
20260503192534 56 0.0 0.0 0.00 0.16 0.16 99
20260503192529 56 268 2.0 3.0 0.00 0.00 0.00 98
20260503191523 56 0.0 0.0 0.00 0.16 0.16 99
20260503191521 56 273 2.0 6.0 0.00 0.00 0.00 98
20260503190531 56 0.0 0.0 0.01 0.16 0.16 99
20260503190529 56 268 2.0 6.0 0.00 0.00 0.00 98
20260503185522 56 266 2.0 6.0 0.00 0.00 0.00 98
20260503184529 56 256 2.0 5.0 0.00 0.00 0.00 98
20260503183535 56 0.0 0.0 0.03 0.16 0.16 99
20260503183521 56 284 4.0 9.0 0.00 0.00 0.00 98
20260503182549 56 273 3.0 7.0 0.00 0.00 0.00 98
20260503182544 56 0.0 0.0 0.04 0.16 0.16 99
20260503181553 56 0.0 0.0 0.04 0.16 0.16 99
20260503181523 56 269 3.0 8.0 0.00 0.00 0.00 98
20260503180549 56 267 2.0 6.0 0.00 0.00 0.00 98
20260503180545 56 0.0 0.0 0.03 0.15 0.15 99
20260503175530 56 0.0 0.0 0.03 0.15 0.15 99
20260503175521 56 274 2.0 5.0 0.00 0.00 0.00 98
20260503174529 56 276 2.0 5.0 0.00 0.00 0.00 98
20260503174520 56 0.0 0.0 0.03 0.14 0.14 99
20260503173548 56 0.0 0.0 0.03 0.13 0.13 99
20260503173523 56 280 3.0 9.0 0.00 0.00 0.00 98
20260503172535 56 0.0 0.0 0.02 0.12 0.12 99
20260503172532 56 267 3.0 6.0 0.00 0.00 0.00 98
20260503171525 56 0.0 0.0 0.03 0.12 0.12 99
20260503171522 56 274 4.0 8.0 0.00 0.00 0.00 98
20260503170613 56 0.0 0.0 0.04 0.12 0.12 99
20260503150534 58 0.0 0.0 0.06 0.06 0.06 99
20260503150529 58 285 3.0 7.0 0.00 0.00 0.00 96
20260503130536 59 0.0 0.0 0.00 0.00 0.00 99
20260503130534 59 263 3.0 6.0 0.00 0.00 0.00 87
20260503110531 59 236 1.0 2.0 0.00 0.00 0.00 89
20260503081525 62 251 2.0 5.0 0.00 0.00 0.00 77
20260503081028 62 0.0 0.0 0.00 0.00 0.00 99
20260503080529 62 246 3.0 7.0 0.00 0.00 0.00 76
20260503072550 62 0.0 0.0 0.00 0.00 0.00 75
20260503071522 63 0.0 0.0 0.00 0.00 0.00 74
20260503070530 63 0.0 0.0 0.00 0.00 0.00 73